Epoch 2010 Mar. 25.0 TT = JDT 2455280.5 T 2010 Mar. 24.41719 TT MPC q 0.6954541 (2000.0) P Q z +0.0036565 Peri. 133.40462 -0.61480745 -0.30750035 +/-0.0000034 Node 310.23075 +0.07366881 +0.89444295 e 0.9974571 Incl. 107.95683 +0.78522908 -0.32467729
m1 = 12.5 + 5 log d + 8.0 log r(t + 40) [ ,18] ( - 2010 Apr. 11) m1 = 15.5 + 5 log d + 20 log r [18, ] (2010 Apr. 11 - ) * Gray curve is: m1 = 10.0 + 5 log d + 11.5 log r